Starlink 35248

operational
NORAD ID: 65598 Int'l Des: 2025-207 Owner: SPXS Country: US Constellation: starlink
NOTLE

Starlink 35248について

説明を読み込み中...

リアルタイム位置

3D地球を読み込み中...

次回通過

高度履歴

Altitude vs Time

uPlot chart will show altitude changes over time

軌道要素

1 65598U 25207G 25354.50002315 -.01655725 00000-0 -71206-1 0 9994
2 65598 97.6033 60.5336 0001703 85.4940 184.2202 15.25944742 5835
Epoch: Dec 20, 2025 • Age: 5 hours

現在のステータス

高度 510.1 km
速度 7.61 km/s
衛星直下点 -49.48°S, 86.65°E
打ち上げ日 Sep 13, 2025
運用期間 0.2 years
タイプ internet

技術仕様

分類 Payload
質量 575.00 kg
乾燥質量 530.00 kg
総質量 575.00 kg
長さ 0.30 m
直径 4.10 m
スパン 29.00 m
形状 Box + pan
製造者 SPXS
バスタイプ Starlink V2MO
フェーズステータス In Orbit
所有者/国 SPXS/US

大規模コンステレーション

Loading constellations...